TimeAKST,TemperatureF,Dew PointF,Humidity,Sea Level PressureIn,VisibilityMPH,Wind Direction,Wind SpeedMPH,Gust SpeedMPH,PrecipitationIn,Events,Conditions,WindDirDegrees,DateUTC
12:53 AM,-13.0,-17.0,82,30.40,10.0,NE,10.4,-,N/A,,Clear,50,2013-12-13 09:53:00
1:53 AM,-13.0,-17.0,82,30.38,10.0,NNE,6.9,-,N/A,,Clear,30,2013-12-13 10:53:00
2:53 AM,-18.0,-22.0,82,30.35,9.0,NNE,5.8,-,N/A,,Clear,20,2013-12-13 11:53:00
3:53 AM,-26.0,-32.1,73,30.31,6.0,SW,5.8,-,N/A,,Scattered Clouds,230,2013-12-13 12:53:00
4:53 AM,-27.9,-33.0,77,30.30,9.0,WSW,8.1,-,N/A,,Scattered Clouds,240,2013-12-13 13:53:00
5:53 AM,-27.0,-32.1,77,30.27,7.0,SW,8.1,-,N/A,,Scattered Clouds,230,2013-12-13 14:53:00
6:53 AM,-27.9,-34.1,73,30.25,7.0,SW,9.2,-,N/A,,Scattered Clouds,230,2013-12-13 15:53:00
7:53 AM,-26.0,-32.1,73,30.22,9.0,SW,8.1,-,N/A,,Scattered Clouds,230,2013-12-13 16:53:00
8:53 AM,-24.0,-29.9,74,30.20,8.0,WSW,9.2,-,N/A,,Mostly Cloudy,240,2013-12-13 17:53:00
9:53 AM,-23.1,-29.0,74,30.18,9.0,SW,11.5,-,N/A,,Mostly Cloudy,230,2013-12-13 18:53:00
10:53 AM,-20.9,-27.0,73,30.17,9.0,WSW,11.5,-,N/A,,Mostly Cloudy,240,2013-12-13 19:53:00
11:53 AM,-23.1,-29.0,74,30.15,10.0,WSW,12.7,-,N/A,,Mostly Cloudy,240,2013-12-13 20:53:00
12:53 PM,-24.0,-29.9,74,30.14,6.0,SW,12.7,-,N/A,,Mostly Cloudy,230,2013-12-13 21:53:00
1:53 PM,-26.0,-32.1,73,30.11,3.0,SW,12.7,-,N/A,,Mostly Cloudy,220,2013-12-13 22:53:00
2:00 PM,-25.6,-32.8,69,30.10,3.0,SSW,12.7,-,N/A,,Overcast,210,2013-12-13 23:00:00
2:07 PM,-25.6,-32.8,69,30.09,6.0,SW,12.7,-,N/A,,Scattered Clouds,220,2013-12-13 23:07:00
2:53 PM,-25.1,-32.1,70,30.08,6.0,SW,13.8,-,N/A,,Scattered Clouds,220,2013-12-13 23:53:00
3:53 PM,-23.1,-29.0,74,30.05,4.0,SW,12.7,19.6,N/A,,Scattered Clouds,220,2013-12-14 00:53:00
4:00 PM,-23.8,-29.2,76,30.04,3.0,SSW,11.5,17.3,N/A,,Overcast,210,2013-12-14 01:00:00
4:11 PM,-23.8,-29.2,76,30.04,4.0,SW,13.8,-,N/A,,Scattered Clouds,220,2013-12-14 01:11:00
4:53 PM,-24.0,-29.9,74,30.03,4.0,SW,15.0,-,N/A,,Scattered Clouds,220,2013-12-14 01:53:00
5:00 PM,-23.8,-29.2,76,30.02,5.0,SW,16.1,-,N/A,,Overcast,220,2013-12-14 02:00:00
5:12 PM,-23.8,-29.2,76,30.02,5.0,SW,16.1,-,N/A,,Scattered Clouds,220,2013-12-14 02:12:00
5:53 PM,-25.1,-31.0,74,30.01,5.0,SW,15.0,-,N/A,,Scattered Clouds,220,2013-12-14 02:53:00
6:53 PM,-25.1,-31.0,74,29.99,4.0,SW,13.8,-,N/A,,Scattered Clouds,230,2013-12-14 03:53:00
7:00 PM,-25.6,-31.0,76,29.98,6.0,SW,12.7,-,N/A,,Mostly Cloudy,230,2013-12-14 04:00:00
7:53 PM,-25.1,-31.0,74,29.96,5.0,SW,12.7,-,N/A,,Mostly Cloudy,230,2013-12-14 04:53:00
8:00 PM,-25.6,-32.8,69,29.95,5.0,WSW,12.7,-,N/A,,Scattered Clouds,240,2013-12-14 05:00:00
8:53 PM,-25.1,-31.0,74,29.96,5.0,SW,12.7,-,N/A,,Scattered Clouds,230,2013-12-14 05:53:00
9:53 PM,-26.0,-32.1,73,29.95,6.0,SW,15.0,-,N/A,,Scattered Clouds,230,2013-12-14 06:53:00
10:53 PM,-27.0,-33.0,73,29.93,8.0,SW,12.7,-,N/A,,Clear,220,2013-12-14 07:53:00
11:53 PM,-27.9,-34.1,73,29.92,9.0,SW,15.0,-,N/A,,Clear,230,2013-12-14 08:53:00